Regional Weather Roundup
Issued by NWS

Home | Current Version | Previous Version | Text Only | Print | Product List | Glossary Off
Versions: 1 2 3 4 5 6 7 8 9 10 11 12 13 14 15 16 17 18 19 20 21 22 23 24 25 26 27 28 29 30 31 32 33 34 35 36 37 38 39 40 41 42 43 44 45 46 47 48 49 50

365
ASUS45 KSLC 061910
RWRUT

UTAH REGIONAL WEATHER ROUNDUP
NATIONAL WEATHER SERVICE SALT LAKE CITY UT
1200 PM MST SAT FEB 06 2016

UTZ001>011-023>025-062000-

NORTHERN UTAH

CITY           SKY/WX    TMP DP  RH WIND       PRES   REMARKS
BRIGHAM CITY   MOSUNNY   26  24  92 CALM      30.55F
HILL AFB       SUNNY     32  12  43 E7        30.51F WCI  25
LOGAN          MOSUNNY   29  23  78 CALM      30.52F
OGDEN          SUNNY     33  22  63 VRB3      30.52F
PROVO AIRPORT  SUNNY     18  16  93 CALM      30.56F
SALT LAKE CITY MOSUNNY   34  21  59 SE9       30.52F WCI  27
VERNAL         CLOUDY    13   6  74 E6        30.55F WCI   4
WENDOVER       SUNNY     30  21  69 N5        30.54S WCI  25
HEBER CITY     SUNNY     25  18  74 CALM      30.52F
WEST JORDAN    SUNNY     30  21  69 S12       30.52F WCI  21

$$

UTZ012>022-026-027-062000-

SOUTHERN/CENTRAL UTAH

CITY           SKY/WX    TMP DP  RH WIND       PRES   REMARKS
BLANDING       SUNNY     30  19  63 CALM      30.56F
BRYCE CANYON   SUNNY     25  12  58 CALM      30.46F
CEDAR CITY     SUNNY     27  19  72 NE7       30.48S WCI  19
DELTA          MOSUNNY   13  11  93 S7        30.54F WCI   3
HANKSVILLE     CLOUDY    21  18  86 W3        30.65F
MILFORD        FLURRIES  11   7  84 CALM      30.53F
MOAB/CYNLANDS  CLOUDY    18  15  88 NW9       30.60F WCI   7
PRICE          SUNNY     19  12  74 S3        30.51F
ST GEORGE      CLEAR     43  23  45 CALM      30.52F
KANAB          SUNNY     46  21  36 CALM      30.50F

$$

REGIONAL REPORTS     COLORADO/ARIZONA

CITY           SKY/WX    TMP DP  RH WIND       PRES   REMARKS
CRAIG, CO      CLOUDY    13   8  81 CALM      30.47F
GRAND JUNCTION SUNNY     17  13  84 NW5       30.58F WCI  10
RIFLE          SUNNY     19   8  62 CALM      30.54F
MONTROSE       SUNNY     25  12  58 N3        30.54F
CORTEZ         SUNNY     29  16  58 SW8       30.49F WCI  21
PAGE, AZ       SUNNY     36  25  64 N8        30.53F WCI  30
GRAND CANYON   SUNNY     46  12  25 NE8       30.45F
KINGMAN        SUNNY     53  32  44 N8        30.41F
FLAGSTAFF      SUNNY     39  12  33 NE10      30.44F WCI  32

$$

REGIONAL REPORTS    NEVADA/IDAHO/WYOMING

CITY           SKY/WX    TMP DP  RH WIND       PRES   REMARKS
LAS VEGAS, NV  MOSUNNY   53  24  32 N3        30.43F
ELY            SUNNY     24  15  68 S14       30.47F WCI  12
ELKO           SUNNY     19  12  74 SW6       30.54R WCI  11
POCATELLO, ID  CLOUDY    29  22  75 NE7       30.44F WCI  22
BURLEY         CLOUDY    42  27  55 SW12      30.44S
EVANSTON, WY   CLOUDY    24  16  71 SW17      30.43F WCI  11
ROCK SPRINGS   SUNNY     27  17  66 SW13      30.37F WCI  16

$$




USA.gov is the U.S. government's official web portal to all federal, state and local government web resources and services.